User: anonymous   Login
Location: ????
(55.2778°N, 39.2433°E)
Time: 15:41:10
(UTC+00:00)
Language:

BlueWalker 3 - Orbit

View from above orbital plane
View from above orbital plane
View from above satellite
View from above satellite

Ground track
Ground track

The orbit data is extracted from the following two-line orbital elements,

1 53807U 22111AL  24173.38768440  .00004088  00000-0  16871-3 0  9993
2 53807  53.2358 174.2654 0009776 100.3473 259.8629 15.26259650 98871
Epoch (UTC): 21 June 2024 09:18:15
Eccentricity: 0.0009776
inclination: 53.2358°
perigee height: 480 km
apogee height: 494 km
right ascension of ascending node: 174.2654°
argument of perigee: 100.3473°
revolutions per day: 15.26259650
mean anomaly at epoch: 259.8629°
orbit number at epoch: 9887

The dashed part of the orbit path shows where the satellite is in the earth's shadow,  

DLR